Year,Month,Day,Hour,Minute,Value (Times are PST for temperature in C)
2010,03,28,00,00,11.60
2010,03,28,00,01,11.70
2010,03,28,00,02,11.70
2010,03,28,00,03,11.70
2010,03,28,00,04,11.70
2010,03,28,00,05,11.70
2010,03,28,00,06,11.80
2010,03,28,00,07,11.80
2010,03,28,00,08,11.80
2010,03,28,00,09,11.80
2010,03,28,00,10,11.80
2010,03,28,00,11,11.80
2010,03,28,00,12,11.80
2010,03,28,00,13,11.90
2010,03,28,00,14,11.90
2010,03,28,00,15,11.90
2010,03,28,00,16,11.90
2010,03,28,00,17,11.90
2010,03,28,00,18,11.80
2010,03,28,00,19,11.60
2010,03,28,00,20,11.40
2010,03,28,00,21,11.20
2010,03,28,00,22,11.00
2010,03,28,00,23,10.80
2010,03,28,00,24,10.70
2010,03,28,00,25,10.50
2010,03,28,00,26,10.40
2010,03,28,00,27,10.20
2010,03,28,00,28,10.10
2010,03,28,00,29,10.10
2010,03,28,00,30,10.10
2010,03,28,00,31,9.90
2010,03,28,00,32,10.00
2010,03,28,00,33,10.10
2010,03,28,00,34,10.10
2010,03,28,00,35,10.20
2010,03,28,00,36,10.20
2010,03,28,00,37,10.30
2010,03,28,00,38,10.30
2010,03,28,00,39,10.30
2010,03,28,00,40,10.30
2010,03,28,00,41,10.30
2010,03,28,00,42,10.30
2010,03,28,00,43,10.20
2010,03,28,00,44,10.30
2010,03,28,00,45,10.30
2010,03,28,00,46,10.30
2010,03,28,00,47,10.30
2010,03,28,00,48,10.30
2010,03,28,00,49,10.30
2010,03,28,00,50,10.20
2010,03,28,00,51,10.20
2010,03,28,00,52,10.20
2010,03,28,00,53,10.10
2010,03,28,00,54,10.10
2010,03,28,00,55,10.10
2010,03,28,00,56,10.00
2010,03,28,00,57,9.90
2010,03,28,00,58,9.90
2010,03,28,00,59,9.90
2010,03,28,01,00,9.90
2010,03,28,01,01,9.90
2010,03,28,01,02,9.90
2010,03,28,01,03,9.90
2010,03,28,01,04,9.90
2010,03,28,01,05,9.90
2010,03,28,01,06,9.90
2010,03,28,01,07,9.90
2010,03,28,01,08,10.10
2010,03,28,01,09,10.10
2010,03,28,01,10,10.20
2010,03,28,01,11,10.20
2010,03,28,01,12,10.30
2010,03,28,01,13,10.30
2010,03,28,01,14,10.40
2010,03,28,01,15,10.50
2010,03,28,01,16,10.60
2010,03,28,01,17,10.60
2010,03,28,01,18,10.70
2010,03,28,01,19,10.80
2010,03,28,01,20,10.90
2010,03,28,01,21,11.00
2010,03,28,01,22,11.10
2010,03,28,01,23,11.30
2010,03,28,01,24,11.40
2010,03,28,01,25,11.60
2010,03,28,01,26,11.70
2010,03,28,01,27,11.70
2010,03,28,01,28,11.80
2010,03,28,01,29,11.80
2010,03,28,01,30,11.80
2010,03,28,01,31,11.80
2010,03,28,01,32,11.80
2010,03,28,01,33,11.80
2010,03,28,01,34,11.80
2010,03,28,01,35,11.80
2010,03,28,01,36,11.80
2010,03,28,01,37,11.80
2010,03,28,01,38,11.80
2010,03,28,01,39,11.80
2010,03,28,01,40,11.80
2010,03,28,01,41,11.80
2010,03,28,01,42,11.80
2010,03,28,01,43,11.80
2010,03,28,01,44,11.80
2010,03,28,01,45,11.80
2010,03,28,01,46,11.80
2010,03,28,01,47,11.70
2010,03,28,01,48,11.70
2010,03,28,01,49,11.70
2010,03,28,01,50,11.60
2010,03,28,01,51,11.60
2010,03,28,01,52,11.60
2010,03,28,01,53,11.60
2010,03,28,01,54,11.60
2010,03,28,01,55,11.60
2010,03,28,01,56,11.50
2010,03,28,01,57,11.40
2010,03,28,01,58,11.40
2010,03,28,01,59,11.40
2010,03,28,02,00,11.40
2010,03,28,02,01,11.30
2010,03,28,02,02,11.30
2010,03,28,02,03,11.20
2010,03,28,02,04,11.20
2010,03,28,02,05,11.20
2010,03,28,02,06,11.10
2010,03,28,02,07,11.10
2010,03,28,02,08,10.90
2010,03,28,02,09,10.90
2010,03,28,02,10,10.80
2010,03,28,02,11,10.70
2010,03,28,02,12,10.60
2010,03,28,02,13,10.60
2010,03,28,02,14,10.50
2010,03,28,02,15,10.40
2010,03,28,02,16,10.40
2010,03,28,02,17,10.30
2010,03,28,02,18,10.20
2010,03,28,02,19,10.10
2010,03,28,02,20,10.00
2010,03,28,02,21,9.90
2010,03,28,02,22,9.80
2010,03,28,02,23,9.70
2010,03,28,02,24,9.60
2010,03,28,02,25,9.50
2010,03,28,02,26,9.40
2010,03,28,02,27,9.30
2010,03,28,02,28,9.30
2010,03,28,02,29,9.20
2010,03,28,02,30,9.20
2010,03,28,02,31,9.20
2010,03,28,02,32,9.20
2010,03,28,02,33,9.10
2010,03,28,02,34,9.10
2010,03,28,02,35,9.10
2010,03,28,02,36,9.00
2010,03,28,02,37,9.00
2010,03,28,02,38,9.00
2010,03,28,02,39,8.90
2010,03,28,02,40,8.90
2010,03,28,02,41,8.90
2010,03,28,02,42,8.80
2010,03,28,02,43,8.70
2010,03,28,02,44,8.70
2010,03,28,02,45,8.60
2010,03,28,02,46,8.50
2010,03,28,02,47,8.40
2010,03,28,02,48,8.40
2010,03,28,02,49,8.30
2010,03,28,02,50,8.30
2010,03,28,02,51,8.20
2010,03,28,02,52,8.20
2010,03,28,02,53,8.10
2010,03,28,02,54,8.10
2010,03,28,02,55,8.10
2010,03,28,02,56,8.00
2010,03,28,02,57,8.00
2010,03,28,02,58,8.00
2010,03,28,02,59,8.00
2010,03,28,03,00,7.90
2010,03,28,03,01,7.90
2010,03,28,03,02,7.90
2010,03,28,03,03,7.80
2010,03,28,03,04,7.80
2010,03,28,03,05,7.80
2010,03,28,03,06,7.80
2010,03,28,03,07,7.80
2010,03,28,03,08,7.80
2010,03,28,03,09,7.80
2010,03,28,03,10,7.80
2010,03,28,03,11,7.80
2010,03,28,03,12,7.70
2010,03,28,03,13,7.70
2010,03,28,03,14,7.70
2010,03,28,03,15,7.70
2010,03,28,03,16,7.70
2010,03,28,03,17,7.70
2010,03,28,03,18,7.70
2010,03,28,03,19,7.60
2010,03,28,03,20,7.60
2010,03,28,03,21,7.60
2010,03,28,03,22,7.60
2010,03,28,03,23,7.60
2010,03,28,03,24,7.60
2010,03,28,03,25,7.60
2010,03,28,03,26,7.60
2010,03,28,03,27,7.60
2010,03,28,03,28,7.60
2010,03,28,03,29,7.50
2010,03,28,03,30,7.50
2010,03,28,03,31,7.50
2010,03,28,03,32,7.50
2010,03,28,03,33,7.50
2010,03,28,03,34,7.50
2010,03,28,03,35,7.50
2010,03,28,03,36,7.40
2010,03,28,03,37,7.40
2010,03,28,03,38,7.40
2010,03,28,03,39,7.40
2010,03,28,03,40,7.40
2010,03,28,03,41,7.40
2010,03,28,03,42,7.40
2010,03,28,03,43,7.40
2010,03,28,03,44,7.40
2010,03,28,03,45,7.40
2010,03,28,03,46,7.40
2010,03,28,03,47,7.40
2010,03,28,03,48,7.40
2010,03,28,03,49,7.40
2010,03,28,03,50,7.40
2010,03,28,03,51,7.40
2010,03,28,03,52,7.40
2010,03,28,03,53,7.40
2010,03,28,03,54,7.40
2010,03,28,03,55,7.30
2010,03,28,03,56,7.30
2010,03,28,03,57,7.30
2010,03,28,03,58,7.30
2010,03,28,03,59,7.30
2010,03,28,04,00,7.30
2010,03,28,04,01,7.30
2010,03,28,04,02,7.30
2010,03,28,04,03,7.30
2010,03,28,04,04,7.30
2010,03,28,04,05,7.30
2010,03,28,04,06,7.30
2010,03,28,04,07,7.30
2010,03,28,04,08,7.30
2010,03,28,04,09,7.30
2010,03,28,04,10,7.20
2010,03,28,04,11,7.20
2010,03,28,04,12,7.20
2010,03,28,04,13,7.20
2010,03,28,04,14,7.20
2010,03,28,04,15,7.10
2010,03,28,04,16,7.10
2010,03,28,04,17,7.10
2010,03,28,04,18,7.10
2010,03,28,04,19,7.10
2010,03,28,04,20,7.10
2010,03,28,04,21,7.10
2010,03,28,04,22,7.10
2010,03,28,04,23,7.10
2010,03,28,04,24,7.00
2010,03,28,04,25,7.00
2010,03,28,04,26,7.00
2010,03,28,04,27,7.00
2010,03,28,04,28,7.00
2010,03,28,04,29,7.00
2010,03,28,04,30,7.00
2010,03,28,04,31,7.00
2010,03,28,04,32,7.00
2010,03,28,04,33,6.90
2010,03,28,04,34,6.90
2010,03,28,04,35,6.90
2010,03,28,04,36,6.90
2010,03,28,04,37,6.90
2010,03,28,04,38,6.90
2010,03,28,04,39,6.90
2010,03,28,04,40,6.90
2010,03,28,04,41,6.90
2010,03,28,04,42,6.90
2010,03,28,04,43,6.90
2010,03,28,04,44,6.80
2010,03,28,04,45,6.80
2010,03,28,04,46,6.80
2010,03,28,04,47,6.80
2010,03,28,04,48,6.80
2010,03,28,04,49,6.80
2010,03,28,04,50,6.80
2010,03,28,04,51,6.80
2010,03,28,04,52,6.90
2010,03,28,04,53,6.90
2010,03,28,04,54,6.90
2010,03,28,04,55,6.90
2010,03,28,04,56,6.90
2010,03,28,04,57,6.90
2010,03,28,04,58,6.90
2010,03,28,04,59,6.80
2010,03,28,05,00,6.80
2010,03,28,05,01,6.80
2010,03,28,05,02,6.80
2010,03,28,05,03,6.80
2010,03,28,05,04,6.80
2010,03,28,05,05,6.80
2010,03,28,05,06,6.80
2010,03,28,05,07,6.80
2010,03,28,05,08,6.80
2010,03,28,05,09,6.80
2010,03,28,05,10,6.80
2010,03,28,05,11,6.80
2010,03,28,05,12,6.80
2010,03,28,05,13,6.80
2010,03,28,05,14,6.80
2010,03,28,05,15,6.80
2010,03,28,05,16,6.70
2010,03,28,05,17,6.70
2010,03,28,05,18,6.70
2010,03,28,05,19,6.80
2010,03,28,05,20,6.80
2010,03,28,05,21,6.80
2010,03,28,05,22,6.80
2010,03,28,05,23,6.80
2010,03,28,05,24,6.80
2010,03,28,05,25,6.80
2010,03,28,05,26,6.80
2010,03,28,05,27,6.80
2010,03,28,05,28,6.70
2010,03,28,05,29,6.70
2010,03,28,05,30,6.70
2010,03,28,05,31,6.70
2010,03,28,05,32,6.70
2010,03,28,05,33,6.70
2010,03,28,05,34,6.70
2010,03,28,05,35,6.70
2010,03,28,05,36,6.70
2010,03,28,05,37,6.70
2010,03,28,05,38,6.70
2010,03,28,05,39,6.70
2010,03,28,05,40,6.70
2010,03,28,05,41,6.70
2010,03,28,05,42,6.70
2010,03,28,05,43,6.70
2010,03,28,05,44,6.70
2010,03,28,05,45,6.70
2010,03,28,05,46,6.70
2010,03,28,05,47,6.70
2010,03,28,05,48,6.70
2010,03,28,05,49,6.70
2010,03,28,05,50,6.70
2010,03,28,05,51,6.70
2010,03,28,05,52,6.80
2010,03,28,05,53,6.80
2010,03,28,05,54,6.80
2010,03,28,05,55,6.80
2010,03,28,05,56,6.80
2010,03,28,05,57,6.80
2010,03,28,05,58,6.80
2010,03,28,05,59,6.80
2010,03,28,06,00,6.80
2010,03,28,06,01,6.80
2010,03,28,06,02,6.80
2010,03,28,06,03,6.80
2010,03,28,06,04,6.80
2010,03,28,06,05,6.80
2010,03,28,06,06,6.90
2010,03,28,06,07,6.90
2010,03,28,06,08,6.90
2010,03,28,06,09,6.90
2010,03,28,06,10,6.90
2010,03,28,06,11,7.00
2010,03,28,06,12,7.00
2010,03,28,06,13,7.00
2010,03,28,06,14,7.10
2010,03,28,06,15,7.10
2010,03,28,06,16,7.20
2010,03,28,06,17,7.20
2010,03,28,06,18,7.20
2010,03,28,06,19,7.30
2010,03,28,06,20,7.30
2010,03,28,06,21,7.30
2010,03,28,06,22,7.30
2010,03,28,06,23,7.30
2010,03,28,06,24,7.30
2010,03,28,06,25,7.30
2010,03,28,06,26,7.30
2010,03,28,06,27,7.30
2010,03,28,06,28,7.30
2010,03,28,06,29,7.30
2010,03,28,06,30,7.30
2010,03,28,06,31,7.30
2010,03,28,06,32,7.30
2010,03,28,06,33,7.30
2010,03,28,06,34,7.30
2010,03,28,06,35,7.30
2010,03,28,06,36,7.30
2010,03,28,06,37,7.30
2010,03,28,06,38,7.30
2010,03,28,06,39,7.30
2010,03,28,06,40,7.30
2010,03,28,06,41,7.30
2010,03,28,06,42,7.30
2010,03,28,06,43,7.30
2010,03,28,06,44,7.30
2010,03,28,06,45,7.30
2010,03,28,06,46,7.30
2010,03,28,06,47,7.30
2010,03,28,06,48,7.30
2010,03,28,06,49,7.30
2010,03,28,06,50,7.30
2010,03,28,06,51,7.30
2010,03,28,06,52,7.40
2010,03,28,06,53,7.40
2010,03,28,06,54,7.40
2010,03,28,06,55,7.40
2010,03,28,06,56,7.40
2010,03,28,06,57,7.40
2010,03,28,06,58,7.50
2010,03,28,06,59,7.50
2010,03,28,07,00,7.50
2010,03,28,07,01,7.50
2010,03,28,07,02,7.50
2010,03,28,07,03,7.50
2010,03,28,07,04,7.60
2010,03,28,07,05,7.60
2010,03,28,07,06,7.60
2010,03,28,07,07,7.60
2010,03,28,07,08,7.60
2010,03,28,07,09,7.70
2010,03,28,07,10,7.70
2010,03,28,07,11,7.70
2010,03,28,07,12,7.70
2010,03,28,07,13,7.80
2010,03,28,07,14,7.80
2010,03,28,07,15,7.80
2010,03,28,07,16,7.80
2010,03,28,07,17,7.80
2010,03,28,07,18,7.80
2010,03,28,07,19,7.80
2010,03,28,07,20,7.80
2010,03,28,07,21,7.80
2010,03,28,07,22,7.80
2010,03,28,07,23,7.90
2010,03,28,07,24,7.90
2010,03,28,07,25,7.90
2010,03,28,07,26,7.90
2010,03,28,07,27,7.90
2010,03,28,07,28,7.90
2010,03,28,07,29,7.90
2010,03,28,07,30,7.90
2010,03,28,07,31,7.90
2010,03,28,07,32,7.90
2010,03,28,07,33,7.90
2010,03,28,07,34,7.90
2010,03,28,07,35,7.90
2010,03,28,07,36,7.90
2010,03,28,07,37,7.90
2010,03,28,07,38,7.90
2010,03,28,07,39,7.90
2010,03,28,07,40,7.90
2010,03,28,07,41,7.90
2010,03,28,07,42,7.90
2010,03,28,07,43,7.90
2010,03,28,07,44,7.80
2010,03,28,07,45,7.80
2010,03,28,07,46,7.80
2010,03,28,07,47,7.80
2010,03,28,07,48,7.80
2010,03,28,07,49,7.80
2010,03,28,07,50,7.80
2010,03,28,07,51,7.80
2010,03,28,07,52,7.80
2010,03,28,07,53,7.80
2010,03,28,07,54,7.80
2010,03,28,07,55,7.70
2010,03,28,07,56,7.70
2010,03,28,07,57,7.70
2010,03,28,07,58,7.70
2010,03,28,07,59,7.70
2010,03,28,08,00,7.60
2010,03,28,08,01,7.60
2010,03,28,08,02,7.60
2010,03,28,08,03,7.60
2010,03,28,08,04,7.50
2010,03,28,08,05,7.50
2010,03,28,08,06,7.50
2010,03,28,08,07,7.50
2010,03,28,08,08,7.40
2010,03,28,08,09,7.40
2010,03,28,08,10,7.40
2010,03,28,08,11,7.40
2010,03,28,08,12,7.40
2010,03,28,08,13,7.40
2010,03,28,08,14,7.40
2010,03,28,08,15,7.40
2010,03,28,08,16,7.40
2010,03,28,08,17,7.40
2010,03,28,08,18,7.30
2010,03,28,08,19,7.30
2010,03,28,08,20,7.30
2010,03,28,08,21,7.30
2010,03,28,08,22,7.30
2010,03,28,08,23,7.30
2010,03,28,08,24,7.30
2010,03,28,08,25,7.30
2010,03,28,08,26,7.30
2010,03,28,08,27,7.30
2010,03,28,08,28,7.30
2010,03,28,08,29,7.30
2010,03,28,08,30,7.30
2010,03,28,08,31,7.30
2010,03,28,08,32,7.30
2010,03,28,08,33,7.30
2010,03,28,08,34,7.30
2010,03,28,08,35,7.30
2010,03,28,08,36,7.30
2010,03,28,08,37,7.30
2010,03,28,08,38,7.30
2010,03,28,08,39,7.30
2010,03,28,08,40,7.30
2010,03,28,08,41,7.30
2010,03,28,08,42,7.30
2010,03,28,08,43,7.30
2010,03,28,08,44,7.30
2010,03,28,08,45,7.30
2010,03,28,08,46,7.30
2010,03,28,08,47,7.30
2010,03,28,08,48,7.30
2010,03,28,08,49,7.30
2010,03,28,08,50,7.30
2010,03,28,08,51,7.30
2010,03,28,08,52,7.30
2010,03,28,08,53,7.30
2010,03,28,08,54,7.30
2010,03,28,08,55,7.30
2010,03,28,08,56,7.30
2010,03,28,08,57,7.30
2010,03,28,08,58,7.30
2010,03,28,08,59,7.30
2010,03,28,09,00,7.30
2010,03,28,09,01,7.30
2010,03,28,09,02,7.30
2010,03,28,09,03,7.30
2010,03,28,09,04,7.30
2010,03,28,09,05,7.30
2010,03,28,09,06,7.30
2010,03,28,09,07,7.30
2010,03,28,09,08,7.30
2010,03,28,09,09,7.30
2010,03,28,09,10,7.30
2010,03,28,09,11,7.30
2010,03,28,09,12,7.40
2010,03,28,09,13,7.40
2010,03,28,09,14,7.40
2010,03,28,09,15,7.50
2010,03,28,09,16,7.50
2010,03,28,09,17,7.50
2010,03,28,09,18,7.60
2010,03,28,09,19,7.60
2010,03,28,09,20,7.60
2010,03,28,09,21,7.60
2010,03,28,09,22,7.60
2010,03,28,09,23,7.70
2010,03,28,09,24,7.70
2010,03,28,09,25,7.70
2010,03,28,09,26,7.80
2010,03,28,09,27,7.80
2010,03,28,09,28,7.80
2010,03,28,09,29,7.80
2010,03,28,09,30,7.80
2010,03,28,09,31,7.90
2010,03,28,09,32,7.90
2010,03,28,09,33,7.90
2010,03,28,09,34,7.90
2010,03,28,09,35,7.90
2010,03,28,09,36,7.90
2010,03,28,09,37,7.90
2010,03,28,09,38,8.00
2010,03,28,09,39,8.00
2010,03,28,09,40,8.00
2010,03,28,09,41,8.00
2010,03,28,09,42,8.10
2010,03,28,09,43,8.10
2010,03,28,09,44,8.20
2010,03,28,09,45,8.20
2010,03,28,09,46,8.20
2010,03,28,09,47,8.20
2010,03,28,09,48,8.20
2010,03,28,09,49,8.20
2010,03,28,09,50,8.20
2010,03,28,09,51,8.20
2010,03,28,09,52,8.20
2010,03,28,09,53,8.20
2010,03,28,09,54,8.30
2010,03,28,09,55,8.30
2010,03,28,09,56,8.30
2010,03,28,09,57,8.40
2010,03,28,09,58,8.40
2010,03,28,09,59,8.40
2010,03,28,10,00,8.40
2010,03,28,10,01,8.50
2010,03,28,10,02,8.50
2010,03,28,10,03,8.60
2010,03,28,10,04,8.70
2010,03,28,10,05,8.70
2010,03,28,10,06,8.80
2010,03,28,10,07,8.80
2010,03,28,10,08,8.80
2010,03,28,10,09,8.90
2010,03,28,10,10,8.80
2010,03,28,10,11,8.90
2010,03,28,10,12,9.00
2010,03,28,10,13,9.00
2010,03,28,10,14,9.10
2010,03,28,10,15,9.10
2010,03,28,10,16,9.20
2010,03,28,10,17,9.20
2010,03,28,10,18,9.20
2010,03,28,10,19,9.30
2010,03,28,10,20,9.30
2010,03,28,10,21,9.30
2010,03,28,10,22,9.40
2010,03,28,10,23,9.40
2010,03,28,10,24,9.40
2010,03,28,10,25,9.50
2010,03,28,10,26,9.50
2010,03,28,10,27,9.40
2010,03,28,10,28,9.40
2010,03,28,10,29,9.50
2010,03,28,10,30,9.50
2010,03,28,10,31,9.60
2010,03,28,10,32,9.70
2010,03,28,10,33,9.70
2010,03,28,10,34,9.70
2010,03,28,10,35,9.70
2010,03,28,10,36,9.70
2010,03,28,10,37,9.80
2010,03,28,10,38,9.90
2010,03,28,10,39,9.90
2010,03,28,10,40,10.00
2010,03,28,10,41,10.10
2010,03,28,10,42,10.10
2010,03,28,10,43,10.10
2010,03,28,10,44,10.10
2010,03,28,10,45,10.10
2010,03,28,10,46,10.10
2010,03,28,10,47,9.90
2010,03,28,10,48,9.90
2010,03,28,10,49,9.90
2010,03,28,10,50,9.90
2010,03,28,10,51,9.90
2010,03,28,10,52,10.00
2010,03,28,10,53,10.10
2010,03,28,10,54,10.20
2010,03,28,10,55,10.20
2010,03,28,10,56,10.30
2010,03,28,10,57,10.20
2010,03,28,10,58,10.20
2010,03,28,10,59,10.20
2010,03,28,11,00,10.20
2010,03,28,11,01,10.10
2010,03,28,11,02,10.10
2010,03,28,11,03,10.20
2010,03,28,11,04,10.20
2010,03,28,11,05,10.10
2010,03,28,11,06,10.20
2010,03,28,11,07,10.20
2010,03,28,11,08,10.10
2010,03,28,11,09,10.20
2010,03,28,11,10,10.20
2010,03,28,11,11,10.20
2010,03,28,11,12,10.30
2010,03,28,11,13,10.20
2010,03,28,11,14,10.10
2010,03,28,11,15,10.10
2010,03,28,11,16,10.10
2010,03,28,11,17,10.00
2010,03,28,11,18,9.90
2010,03,28,11,19,10.00
2010,03,28,11,20,10.10
2010,03,28,11,21,10.10
2010,03,28,11,22,10.20
2010,03,28,11,23,10.20
2010,03,28,11,24,10.20
2010,03,28,11,25,10.20
2010,03,28,11,26,10.30
2010,03,28,11,27,10.30
2010,03,28,11,28,10.40
2010,03,28,11,29,10.40
2010,03,28,11,30,10.40
2010,03,28,11,31,10.40
2010,03,28,11,32,10.40
2010,03,28,11,33,10.40
2010,03,28,11,34,10.20
2010,03,28,11,35,10.10
2010,03,28,11,36,10.00
2010,03,28,11,37,9.90
2010,03,28,11,38,9.90
2010,03,28,11,39,9.90
2010,03,28,11,40,9.90
2010,03,28,11,41,9.90
2010,03,28,11,42,9.80
2010,03,28,11,43,9.70
2010,03,28,11,44,9.70
2010,03,28,11,45,9.70
2010,03,28,11,46,9.70
2010,03,28,11,47,9.70
2010,03,28,11,48,9.70
2010,03,28,11,49,9.60
2010,03,28,11,50,9.60
2010,03,28,11,51,9.60
2010,03,28,11,52,9.70
2010,03,28,11,53,9.70
2010,03,28,11,54,9.70
2010,03,28,11,55,9.80
2010,03,28,11,56,9.90
2010,03,28,11,57,9.90
2010,03,28,11,58,9.90
2010,03,28,11,59,9.90
2010,03,28,12,00,9.90
2010,03,28,12,01,9.90
2010,03,28,12,02,9.90
2010,03,28,12,03,9.90
2010,03,28,12,04,10.00
2010,03,28,12,05,10.10
2010,03,28,12,06,10.20
2010,03,28,12,07,10.20
2010,03,28,12,08,10.40
2010,03,28,12,09,10.50
2010,03,28,12,10,10.70
2010,03,28,12,11,10.70
2010,03,28,12,12,10.70
2010,03,28,12,13,10.60
2010,03,28,12,14,10.60
2010,03,28,12,15,10.40
2010,03,28,12,16,10.20
2010,03,28,12,17,10.10
2010,03,28,12,18,10.20
2010,03,28,12,19,10.20
2010,03,28,12,20,10.10
2010,03,28,12,21,10.10
2010,03,28,12,22,10.10
2010,03,28,12,23,10.10
2010,03,28,12,24,10.10
2010,03,28,12,25,10.10
2010,03,28,12,26,10.20
2010,03,28,12,27,10.20
2010,03,28,12,28,10.30
2010,03,28,12,29,10.30
2010,03,28,12,30,10.30
2010,03,28,12,31,10.40
2010,03,28,12,32,10.40
2010,03,28,12,33,10.50
2010,03,28,12,34,10.40
2010,03,28,12,35,10.40
2010,03,28,12,36,10.40
2010,03,28,12,37,10.40
2010,03,28,12,38,10.40
2010,03,28,12,39,10.40
2010,03,28,12,40,10.50
2010,03,28,12,41,10.60
2010,03,28,12,42,10.60
2010,03,28,12,43,10.70
2010,03,28,12,44,10.70
2010,03,28,12,45,10.70
2010,03,28,12,46,10.70
2010,03,28,12,47,10.80
2010,03,28,12,48,10.80
2010,03,28,12,49,10.90
2010,03,28,12,50,10.90
2010,03,28,12,51,10.90
2010,03,28,12,52,10.90
2010,03,28,12,53,10.90
2010,03,28,12,54,10.80
2010,03,28,12,55,10.70
2010,03,28,12,56,10.70
2010,03,28,12,57,10.70
2010,03,28,12,58,10.70
2010,03,28,12,59,10.70
2010,03,28,13,00,10.70
2010,03,28,13,01,10.70
2010,03,28,13,02,10.70
2010,03,28,13,03,10.80
2010,03,28,13,04,10.80
2010,03,28,13,05,10.80
2010,03,28,13,06,10.80
2010,03,28,13,07,10.80
2010,03,28,13,08,10.80
2010,03,28,13,09,10.70
2010,03,28,13,10,10.80
2010,03,28,13,11,10.80
2010,03,28,13,12,10.80
2010,03,28,13,13,10.80
2010,03,28,13,14,10.90
2010,03,28,13,15,10.90
2010,03,28,13,16,10.90
2010,03,28,13,17,10.80
2010,03,28,13,18,10.80
2010,03,28,13,19,10.80
2010,03,28,13,20,10.80
2010,03,28,13,21,10.80
2010,03,28,13,22,10.80
2010,03,28,13,23,10.80
2010,03,28,13,24,10.80
2010,03,28,13,25,10.80
2010,03,28,13,26,10.90
2010,03,28,13,27,10.90
2010,03,28,13,28,10.90
2010,03,28,13,29,10.90
2010,03,28,13,30,10.90
2010,03,28,13,31,10.90
2010,03,28,13,32,10.90
2010,03,28,13,33,10.90
2010,03,28,13,34,10.90
2010,03,28,13,35,10.80
2010,03,28,13,36,10.70
2010,03,28,13,37,10.70
2010,03,28,13,38,10.70
2010,03,28,13,39,10.70
2010,03,28,13,40,10.70
2010,03,28,13,41,10.70
2010,03,28,13,42,10.60
2010,03,28,13,43,10.60
2010,03,28,13,44,10.60
2010,03,28,13,45,10.60
2010,03,28,13,46,10.60
2010,03,28,13,47,10.60
2010,03,28,13,48,10.50
2010,03,28,13,49,10.40
2010,03,28,13,50,10.40
2010,03,28,13,51,10.40
2010,03,28,13,52,10.40
2010,03,28,13,53,10.50
2010,03,28,13,54,10.60
2010,03,28,13,55,10.50
2010,03,28,13,56,10.40
2010,03,28,13,57,10.40
2010,03,28,13,58,10.30
2010,03,28,13,59,10.30
2010,03,28,14,00,10.40
2010,03,28,14,01,10.30
2010,03,28,14,02,10.30
2010,03,28,14,03,10.30
2010,03,28,14,04,10.20
2010,03,28,14,05,10.20
2010,03,28,14,06,10.20
2010,03,28,14,07,10.20
2010,03,28,14,08,10.20
2010,03,28,14,09,10.20
2010,03,28,14,10,10.10
2010,03,28,14,11,10.10
2010,03,28,14,12,10.10
2010,03,28,14,13,10.00
2010,03,28,14,14,9.90
2010,03,28,14,15,9.90
2010,03,28,14,16,9.90
2010,03,28,14,17,9.90
2010,03,28,14,18,9.90
2010,03,28,14,19,9.90
2010,03,28,14,20,9.90
2010,03,28,14,21,9.90
2010,03,28,14,22,9.90
2010,03,28,14,23,9.90
2010,03,28,14,24,9.90
2010,03,28,14,25,9.90
2010,03,28,14,26,9.90
2010,03,28,14,27,9.90
2010,03,28,14,28,9.90
2010,03,28,14,29,10.00
2010,03,28,14,30,10.10
2010,03,28,14,31,10.10
2010,03,28,14,32,10.10
2010,03,28,14,33,10.10
2010,03,28,14,34,10.10
2010,03,28,14,35,10.10
2010,03,28,14,36,10.00
2010,03,28,14,37,9.90
2010,03,28,14,38,9.90
2010,03,28,14,39,10.00
2010,03,28,14,40,10.00
2010,03,28,14,41,10.00
2010,03,28,14,42,10.10
2010,03,28,14,43,10.10
2010,03,28,14,44,10.10
2010,03,28,14,45,10.10
2010,03,28,14,46,10.10
2010,03,28,14,47,10.10
2010,03,28,14,48,10.20
2010,03,28,14,49,10.20
2010,03,28,14,50,10.20
2010,03,28,14,51,10.20
2010,03,28,14,52,10.20
2010,03,28,14,53,10.20
2010,03,28,14,54,10.10
2010,03,28,14,55,10.10
2010,03,28,14,56,10.20
2010,03,28,14,57,10.20
2010,03,28,14,58,10.20
2010,03,28,14,59,10.20
2010,03,28,15,00,10.20
2010,03,28,15,01,10.20
2010,03,28,15,02,10.20
2010,03,28,15,03,10.20
2010,03,28,15,04,10.30
2010,03,28,15,05,10.30
2010,03,28,15,06,10.20
2010,03,28,15,07,10.00
2010,03,28,15,08,9.80
2010,03,28,15,09,9.70
2010,03,28,15,10,9.60
2010,03,28,15,11,9.50
2010,03,28,15,12,9.50
2010,03,28,15,13,9.40
2010,03,28,15,14,9.40
2010,03,28,15,15,9.50
2010,03,28,15,16,9.50
2010,03,28,15,17,9.50
2010,03,28,15,18,9.50
2010,03,28,15,19,9.50
2010,03,28,15,20,9.60
2010,03,28,15,21,9.60
2010,03,28,15,22,9.60
2010,03,28,15,23,9.60
2010,03,28,15,24,9.70
2010,03,28,15,25,9.70
2010,03,28,15,26,9.70
2010,03,28,15,27,9.70
2010,03,28,15,28,9.70
2010,03,28,15,29,9.70
2010,03,28,15,30,9.70
2010,03,28,15,31,9.70
2010,03,28,15,32,9.70
2010,03,28,15,33,9.70
2010,03,28,15,34,9.70
2010,03,28,15,35,9.70
2010,03,28,15,36,9.80
2010,03,28,15,37,9.90
2010,03,28,15,38,9.90
2010,03,28,15,39,9.90
2010,03,28,15,40,9.90
2010,03,28,15,41,9.90
2010,03,28,15,42,9.90
2010,03,28,15,43,9.90
2010,03,28,15,44,10.00
2010,03,28,15,45,10.10
2010,03,28,15,46,10.10
2010,03,28,15,47,10.10
2010,03,28,15,48,9.90
2010,03,28,15,49,9.90
2010,03,28,15,50,9.90
2010,03,28,15,51,9.90
2010,03,28,15,52,9.90
2010,03,28,15,53,9.90
2010,03,28,15,54,9.90
2010,03,28,15,55,9.90
2010,03,28,15,56,9.90
2010,03,28,15,57,9.90
2010,03,28,15,58,9.90
2010,03,28,15,59,9.90
2010,03,28,16,00,9.90
2010,03,28,16,01,9.90
2010,03,28,16,02,9.90
2010,03,28,16,03,9.90
2010,03,28,16,04,9.90
2010,03,28,16,05,9.90
2010,03,28,16,06,9.90
2010,03,28,16,07,9.90
2010,03,28,16,08,9.90
2010,03,28,16,09,9.90
2010,03,28,16,10,9.90
2010,03,28,16,11,9.90
2010,03,28,16,12,9.90
2010,03,28,16,13,10.00
2010,03,28,16,14,10.10
2010,03,28,16,15,10.10
2010,03,28,16,16,10.10
2010,03,28,16,17,10.10
2010,03,28,16,18,10.10
2010,03,28,16,19,10.10
2010,03,28,16,20,10.00
2010,03,28,16,21,10.00
2010,03,28,16,22,10.10
2010,03,28,16,23,10.10
2010,03,28,16,24,10.10
2010,03,28,16,25,10.10
2010,03,28,16,26,10.10
2010,03,28,16,27,10.20
2010,03,28,16,28,10.20
2010,03,28,16,29,10.20
2010,03,28,16,30,10.30
2010,03,28,16,31,10.20
2010,03,28,16,32,10.20
2010,03,28,16,33,10.30
2010,03,28,16,34,10.20
2010,03,28,16,35,10.20
2010,03,28,16,36,10.20
2010,03,28,16,37,10.20
2010,03,28,16,38,10.20
2010,03,28,16,39,10.30
2010,03,28,16,40,10.30
2010,03,28,16,41,10.40
2010,03,28,16,42,10.40
2010,03,28,16,43,10.40
2010,03,28,16,44,10.40
2010,03,28,16,45,10.40
2010,03,28,16,46,10.50
2010,03,28,16,47,10.60
2010,03,28,16,48,10.60
2010,03,28,16,49,10.60
2010,03,28,16,50,10.60
2010,03,28,16,51,10.60
2010,03,28,16,52,10.60
2010,03,28,16,53,10.70
2010,03,28,16,54,10.70
2010,03,28,16,55,10.70
2010,03,28,16,56,10.70
2010,03,28,16,57,10.80
2010,03,28,16,58,10.80
2010,03,28,16,59,10.90
2010,03,28,17,00,10.90
2010,03,28,17,01,10.90
2010,03,28,17,02,10.90
2010,03,28,17,03,10.80
2010,03,28,17,04,10.80
2010,03,28,17,05,10.70
2010,03,28,17,06,10.60
2010,03,28,17,07,10.60
2010,03,28,17,08,10.60
2010,03,28,17,09,10.60
2010,03,28,17,10,10.60
2010,03,28,17,11,10.60
2010,03,28,17,12,10.60
2010,03,28,17,13,10.60
2010,03,28,17,14,10.60
2010,03,28,17,15,10.60
2010,03,28,17,16,10.60
2010,03,28,17,17,10.50
2010,03,28,17,18,10.40
2010,03,28,17,19,10.40
2010,03,28,17,20,10.40
2010,03,28,17,21,10.40
2010,03,28,17,22,10.40
2010,03,28,17,23,10.40
2010,03,28,17,24,10.40
2010,03,28,17,25,10.20
2010,03,28,17,26,10.10
2010,03,28,17,27,9.90
2010,03,28,17,28,9.80
2010,03,28,17,29,9.70
2010,03,28,17,30,9.70
2010,03,28,17,31,9.60
2010,03,28,17,32,9.60
2010,03,28,17,33,9.60
2010,03,28,17,34,9.50
2010,03,28,17,35,9.50
2010,03,28,17,36,9.50
2010,03,28,17,37,9.50
2010,03,28,17,38,9.50
2010,03,28,17,39,9.50
2010,03,28,17,40,9.40
2010,03,28,17,41,9.40
2010,03,28,17,42,9.40
2010,03,28,17,43,9.40
2010,03,28,17,44,9.30
2010,03,28,17,45,9.20
2010,03,28,17,46,9.20
2010,03,28,17,47,9.20